Location: Valladolid
(41.6523°N, 4.7245°W)
Time: 04:38:52
(UTC+02:00)

ISS - Visible Passes

Search period start: 24 May 2022 00:00
Search period end: 03 June 2022 00:00
Orbit: 414 x 421 km, 51.6° (Epoch: 23 May)

Date Brightness Start Highest point End Pass type
(mag) Time Alt. Az. Time Alt. Az. Time Alt. Az.
24 May -1.9 00:58:41 10° NW 01:00:51 31° NNW 01:00:51 31° NNW visible
24 May -1.0 22:34:08 10° NW 22:36:11 15° N 22:38:14 10° NE visible
25 May -2.2 00:10:46 10° NW 00:13:45 29° NNE 00:14:23 27° NE visible
25 May -1.6 23:22:48 10° NW 23:25:32 23° NNE 23:27:55 12° ENE visible
26 May -1.7 00:59:15 10° WNW 01:00:49 25° WNW 01:00:49 25° WNW visible
26 May -1.3 22:34:48 10° NNW 22:37:15 18° NNE 22:39:42 10° ENE visible
27 May -3.5 00:11:11 10° NW 00:14:22 64° NNE 00:14:22 64° NNE visible
27 May -2.8 23:23:09 10° NW 23:26:21 41° NNE 23:27:56 24° E visible
28 May -1.1 01:00:10 10° WNW 01:00:50 14° W 01:00:50 14° W visible
28 May -2.2 22:35:08 10° NW 22:38:07 29° NNE 22:41:05 10° E visible
29 May -2.9 00:11:47 10° WNW 00:14:25 39° WSW 00:14:25 39° WSW visible
29 May -3.9 23:23:32 10° WNW 23:26:54 79° SW 23:28:02 38° SE visible
30 May -3.5 22:35:24 10° NW 22:38:44 62° NNE 22:41:40 13° ESE visible
31 May -1.4 00:13:02 10° W 00:14:34 15° WSW 00:14:34 15° WSW visible
31 May -2.3 23:24:16 10° WNW 23:27:09 27° SW 23:28:14 22° SSW visible
01 Jun -3.1 22:35:49 10° WNW 22:39:03 47° SW 22:41:56 12° SSE visible
